Location: Goettingen
(51.5300°N, 9.9433°E)
Time: 17:15:41
(UTC+02:00)

ISS - Pass Details

Date: 23 May 2018
Orbit: 402 x 407 km, 51.6° (Epoch: 27 May)

Event Time Altitude Azimuth Distance (km) Brightness Sun altitude
Rises 02:11:44 0° 281° (WNW) 2,321 0.0 -16.9°
Reaches altitude 10° 02:13:50 10° 279° (W) 1,460 -1.1 -16.9°
Maximum altitude 02:17:04 66° 197° (SSW) 444 -4.0 -16.7°
Drops below altitude 10° 02:20:19 10° 114° (ESE) 1,455 -1.1 -16.6°
Sets 02:22:23 0° 112° (ESE) 2,313 0.0 -16.5°
